STARLINK-5856 (55914 NORAD) Tracking and Keplerian Element Data

This shows tracking and keplerian element data for the satellite.

Feedback or suggestion? Click here.




ElementValue
Catalog55914
NameSTARLINK-5856
Epoch Orbit840
Epoch Day127.25001157
Epoch Year2023
RAAN41.3404
Inclination70.0016
Eccentricity0.000309
Argument of Perigee275.181
Mean Anonmoly323.6597
Mean Motion15.28336549
Decay Rate-0.00936152
L11 55914U 23037A 23127.25001157 -.00936152 00000+0 -36501-1 0 9998
L22 55914 70.0016 41.3404 0003090 275.1810 323.6597 15.28336549 8405



Live tracking and technical data element details for STARLINK-5856 (NORAD 55914). STARLINK-5856 can be tracked NOW for your location showing map with azimuth and elevation plus other details from your city location.







IsCatalogInMostPopularTable: catalog: 55914, numindb: 7
Update: records affected: 1



GetName: 55914 STARLINK-5856

Hit Count: updated at: Tue, 06 Jun 2023 02:36:22 GMT